• In Belarus
  • List of Countries
  • For 7 days
  • Water Temperature
  • Satellite Maps
  • Weather Map
  • Weather Widgets
  • user-avatar
    Login

    Hourly Weather Krasnoe Turgenevo

    Today, 24 June, Sunday

    Time Temperature Precipitation Wind Pressure Humidity
    00:00 +21°C° 0.2 mm 3 mps 740 mmHg 84%
    01:00 +20°C° 0.2 mm 3 mps 740 mmHg 84%
    02:00 +20°C° 0 mm 2 mps 739 mmHg 83%
    03:00 +20°C° 0.1 mm 3 mps 739 mmHg 84%
    04:00 +20°C° 0.1 mm 3 mps 739 mmHg 85%
    05:00 +20°C° 0.1 mm 3 mps 739 mmHg 87%
    06:00 +20°C° 0.2 mm 3 mps 740 mmHg 87%
    07:00 +20°C° 0.2 mm 4 mps 740 mmHg 88%
    08:00 +21°C° 0 mm 3 mps 740 mmHg 90%
    09:00 +20°C° 0.7 mm 3 mps 741 mmHg 91%
    10:00 +19°C° 0.7 mm 3 mps 741 mmHg 91%
    11:00 +18°C° 0.7 mm 4 mps 741 mmHg 91%
    12:00 +18°C° 0.8 mm 4 mps 742 mmHg 91%
    13:00 +17°C° 0.8 mm 4 mps 742 mmHg 90%
    14:00 +17°C° 0.8 mm 4 mps 742 mmHg 90%
    15:00 +17°C° 0.2 mm 4 mps 743 mmHg 87%
    16:00 +17°C° 0.2 mm 3 mps 743 mmHg 85%
    17:00 +17°C° 0.2 mm 3 mps 743 mmHg 83%
    18:00 +16°C° 0 mm 3 mps 744 mmHg 85%
    19:00 +15°C° 0 mm 2 mps 744 mmHg 88%
    20:00 +15°C° 0 mm 2 mps 744 mmHg 91%
    21:00 +14°C° 0 mm 2 mps 745 mmHg 92%
    22:00 +13°C° 0 mm 2 mps 745 mmHg 93%
    23:00 +12°C° 0 mm 2 mps 746 mmHg 94%

    Tomorrow, 25 June, Monday

    Time Temperature Precipitation Wind Pressure Humidity
    00:00 +12°C° 0 mm 2 mps 746 mmHg 94%
    01:00 +12°C° 0 mm 2 mps 746 mmHg 94%
    02:00 +10°C° 0 mm 2 mps 747 mmHg 95%
    03:00 +12°C° 0 mm 2 mps 747 mmHg 94%
    04:00 +12°C° 0 mm 2 mps 747 mmHg 93%
    05:00 +13°C° 0 mm 2 mps 747 mmHg 92%
    06:00 +14°C° 0 mm 2 mps 748 mmHg 86%
    07:00 +16°C° 0 mm 2 mps 748 mmHg 80%
    08:00 +18°C° 0 mm 2 mps 748 mmHg 74%
    09:00 +19°C° 0 mm 2 mps 748 mmHg 69%
    10:00 +20°C° 0 mm 2 mps 748 mmHg 65%
    11:00 +21°C° 0 mm 2 mps 748 mmHg 60%
    12:00 +21°C° 0 mm 2 mps 748 mmHg 59%
    13:00 +23°C° 0 mm 2 mps 748 mmHg 58%
    14:00 +23°C° 0 mm 2 mps 748 mmHg 57%
    15:00 +23°C° 0 mm 2 mps 748 mmHg 59%
    16:00 +23°C° 0 mm 2 mps 748 mmHg 62%
    17:00 +23°C° 0 mm 2 mps 749 mmHg 65%
    18:00 +20°C° 0 mm 2 mps 749 mmHg 71%
    19:00 +19°C° 0 mm 1 mps 749 mmHg 77%
    20:00 +16°C° 0 mm 1 mps 749 mmHg 83%
    21:00 +16°C° 0 mm 1 mps 750 mmHg 84%
    22:00 +15°C° 0 mm 1 mps 750 mmHg 86%
    23:00 +14°C° 0 mm 1 mps 750 mmHg 87%

    Day after tomorrow, 26 June, Tuesday

    Time Temperature Precipitation Wind Pressure Humidity
    00:00 +14°C° 0 mm 1 mps 750 mmHg 88%
    01:00 +14°C° 0 mm 1 mps 750 mmHg 88%
    02:00 +13°C° 0 mm 1 mps 750 mmHg 89%
    03:00 +14°C° 0 mm 1 mps 750 mmHg 88%
    04:00 +15°C° 0 mm 1 mps 751 mmHg 87%
    05:00 +15°C° 0 mm 1 mps 751 mmHg 86%
    06:00 +18°C° 0 mm 1 mps 751 mmHg 81%
    07:00 +20°C° 0 mm 1 mps 751 mmHg 76%
    08:00 +20°C° 0 mm 2 mps 751 mmHg 71%
    09:00 +21°C° 0 mm 2 mps 751 mmHg 66%
    10:00 +23°C° 0 mm 2 mps 751 mmHg 62%
    11:00 +24°C° 0 mm 2 mps 751 mmHg 57%
    12:00 +25°C° 0 mm 2 mps 751 mmHg 56%
    13:00 +25°C° 0 mm 2 mps 751 mmHg 55%
    14:00 +26°C° 0 mm 2 mps 750 mmHg 55%
    15:00 +25°C° 0 mm 2 mps 750 mmHg 58%
    16:00 +25°C° 0 mm 2 mps 750 mmHg 62%
    17:00 +25°C° 0 mm 2 mps 750 mmHg 66%
    18:00 +23°C° 0 mm 2 mps 750 mmHg 71%
    19:00 +21°C° 0 mm 2 mps 750 mmHg 76%
    20:00 +19°C° 0 mm 2 mps 750 mmHg 81%
    21:00 +18°C° 0 mm 2 mps 750 mmHg 82%
    22:00 +18°C° 0 mm 2 mps 749 mmHg 83%
    23:00 +17°C° 0 mm 3 mps 749 mmHg 84%

    27 June, Wednesday

    Time Temperature Precipitation Wind Pressure Humidity
    00:00 +17°C° 0 mm 3 mps 749 mmHg 84%
    01:00 +16°C° 0 mm 3 mps 749 mmHg 83%
    02:00 +16°C° 0 mm 3 mps 749 mmHg 83%
    03:00 +16°C° 0 mm 3 mps 749 mmHg 83%
    04:00 +17°C° 0 mm 3 mps 749 mmHg 82%
    05:00 +17°C° 0 mm 4 mps 749 mmHg 82%
    06:00 +19°C° 0 mm 4 mps 749 mmHg 79%
    07:00 +20°C° 0 mm 5 mps 749 mmHg 76%
    08:00 +22°C° 0 mm 5 mps 749 mmHg 72%
    09:00 +23°C° 0 mm 5 mps 749 mmHg 70%
    10:00 +25°C° 0 mm 5 mps 749 mmHg 68%
    11:00 +26°C° 0 mm 5 mps 749 mmHg 66%
    12:00 +27°C° 0 mm 5 mps 749 mmHg 66%
    13:00 +27°C° 0 mm 5 mps 749 mmHg 66%
    14:00 +28°C° 0 mm 5 mps 748 mmHg 66%
    15:00 +28°C° 0.1 mm 5 mps 748 mmHg 69%
    16:00 +27°C° 0.1 mm 4 mps 748 mmHg 72%
    17:00 +27°C° 0.1 mm 4 mps 748 mmHg 74%
    18:00 +26°C° 0.3 mm 4 mps 748 mmHg 80%
    19:00 +24°C° 0.3 mm 3 mps 749 mmHg 86%
    20:00 +22°C° 0.3 mm 3 mps 749 mmHg 91%
    21:00 +21°C° 0 mm 3 mps 749 mmHg 92%
    22:00 +20°C° 0 mm 3 mps 749 mmHg 94%
    23:00 +20°C° 0 mm 3 mps 749 mmHg 95%

    28 June, Thursday

    Time Temperature Precipitation Wind Pressure Humidity
    00:00 +20°C° 0 mm 3 mps 749 mmHg 95%
    01:00 +19°C° 0 mm 3 mps 749 mmHg 96%
    02:00 +19°C° 0 mm 3 mps 749 mmHg 96%
    03:00 +19°C° 0 mm 3 mps 749 mmHg 95%
    04:00 +20°C° 0 mm 4 mps 749 mmHg 94%
    05:00 +20°C° 0 mm 4 mps 749 mmHg 94%
    06:00 +21°C° 0 mm 4 mps 749 mmHg 89%
    07:00 +23°C° 0 mm 5 mps 749 mmHg 83%
    08:00 +25°C° 0 mm 5 mps 749 mmHg 78%
    09:00 +27°C° 0 mm 5 mps 749 mmHg 74%
    10:00 +28°C° 0 mm 5 mps 749 mmHg 70%
    11:00 +29°C° 0 mm 5 mps 749 mmHg 66%
    12:00 +29°C° 0.2 mm 5 mps 748 mmHg 65%
    13:00 +29°C° 0.2 mm 5 mps 748 mmHg 65%
    14:00 +30°C° 0.2 mm 5 mps 748 mmHg 65%
    15:00 +29°C° 0 mm 5 mps 748 mmHg 68%
    16:00 +29°C° 0 mm 5 mps 747 mmHg 70%
    17:00 +28°C° 0 mm 5 mps 747 mmHg 73%
    18:00 +27°C° 0 mm 5 mps 747 mmHg 77%
    19:00 +26°C° 0 mm 4 mps 747 mmHg 81%
    20:00 +23°C° 0 mm 4 mps 747 mmHg 85%
    21:00 +23°C° 0.1 mm 4 mps 747 mmHg 86%
    22:00 +22°C° 0.1 mm 4 mps 747 mmHg 88%
    23:00 +21°C° 0.1 mm 4 mps 747 mmHg 89%

    29 June, Friday

    Time Temperature Precipitation Wind Pressure Humidity
    00:00 +21°C° 0.2 mm 4 mps 746 mmHg 90%
    01:00 +21°C° 0.2 mm 5 mps 746 mmHg 91%
    02:00 +21°C° 0.2 mm 5 mps 746 mmHg 92%
    03:00 +21°C° 0.3 mm 5 mps 746 mmHg 92%
    04:00 +21°C° 0.3 mm 5 mps 746 mmHg 91%
    05:00 +21°C° 0.3 mm 6 mps 745 mmHg 91%
    06:00 +23°C° 0 mm 6 mps 745 mmHg 88%
    07:00 +25°C° 0 mm 5 mps 746 mmHg 84%
    08:00 +26°C° 0 mm 5 mps 746 mmHg 80%
    09:00 +27°C° 0.7 mm 5 mps 745 mmHg 77%
    10:00 +28°C° 0.7 mm 5 mps 745 mmHg 74%
    11:00 +29°C° 0.7 mm 5 mps 745 mmHg 71%
    12:00 +29°C° 1.7 mm 5 mps 745 mmHg 74%
    13:00 +28°C° 1.7 mm 5 mps 744 mmHg 76%
    14:00 +28°C° 1.7 mm 5 mps 744 mmHg 79%
    15:00 +28°C° 0.3 mm 5 mps 744 mmHg 79%
    16:00 +28°C° 0.3 mm 5 mps 744 mmHg 80%
    17:00 +27°C° 0.3 mm 5 mps 744 mmHg 80%
    18:00 +26°C° 0.9 mm 4 mps 744 mmHg 83%
    19:00 +25°C° 0.9 mm 4 mps 743 mmHg 85%
    20:00 +23°C° 0.9 mm 4 mps 743 mmHg 88%
    21:00 +23°C° 0.9 mm 4 mps 743 mmHg 90%
    22:00 +22°C° 0.9 mm 4 mps 743 mmHg 92%
    23:00 +22°C° 0.9 mm 4 mps 742 mmHg 94%
    Show more